{"data":{"norad_id":53761,"intl_designator":"2022-109B","name":"YAOGAN-35 05B","alt_names":[],"object_type":"PAYLOAD","status":"ACTIVE","operator":null,"country":"PRC","launch_date":"2022-09-06","launch_site_code":"XICLF","launch_vehicle":null,"mission":null,"orbit_class":"UNKNOWN","rcs_meters":null,"size_class":null,"mass_kg":null,"dimensions":null,"purposes":[],"wikipedia_slug":null,"has_3d_model":false,"image_url":null,"decayed_at":null,"tle_current":{"epoch":"2026-09-20T20:44:39.553152Z","epoch_age_seconds":118377,"freshness":"FRESH","line1":"1 53761U 22109B   26263.86434668  .00014043  00000+0  31889-3 0  9993","line2":"2 53761  34.9773  50.9599 0004815 358.1040   1.9661 15.42149350225638","mean_motion":15.4214935,"eccentricity":0.0004815,"inclination_deg":34.9773,"raan_deg":50.9599,"arg_perigee_deg":358.104,"mean_anomaly_deg":1.9661,"bstar":0.00031889,"rev_number":22563,"period_min":93.376170083656,"perigee_km":436.48422210401,"apogee_km":443.04986369733,"semimajor_km":6817.9040429007,"source":"CELESTRAK","updated_at":"2026-09-21T09:00:09.188669Z"}}}